Location: Gro�sch�nbrunn
(49.5760°N, 11.8868°E)
Time: 09:30:46
(UTC+00:00)

N. Korean satellite - Pass Details

Date: 02 December 2020
Orbit: 453 x 502 km, 97.2° (Epoch: 16 January)

Event Time Altitude Azimuth Distance (km) Brightness Sun altitude
Rises 03:41:19 0° 29° (NNE) 2,567 10.6 -29.5°
Reaches altitude 10° 03:44:08 10° 54° (NE) 1,690 9.9 -29.0°
Maximum altitude 03:46:16 15° 90° (E) 1,415 9.7 -28.7°
Drops below altitude 10° 03:48:24 10° 126° (SE) 1,694 10.0 -28.4°
Sets 03:51:14 0° 151° (SSE) 2,578 10.6 -27.9°
